[ hide orbit diagram ]
For accurate long-term ephemerides, please instead use our Horizons system.This orbit viewer was implemented using two-body methods, and hence should not be used for determining accurate long-term trajectories (over several years or decades) or planetary encounter circumstances.
Orbital Elements at Epoch 2459000.5 (2020-May-31.0) TDB
Reference: JPL 29 (heliocentric ecliptic J2000)
Element | Value | Uncertainty (1-sigma) | Units |
e | .1728613089654249 | 3.5166e-08 | |
a | 3.17241663784217 | 2.0457e-08 | au |
q | 2.62402854524108 | 1.0644e-07 | au |
i | .4657556912731607 | 3.7441e-06 | deg |
node | 302.4964182317418 | 0.00064998 | deg |
peri | 349.3261645930384 | 0.00065017 | deg |
M | 104.0255316099083 | 1.6998e-05 | deg |
tp | 2458404.122571153297 (2018-Oct-12.62257115) | 9.557e-05 | TDB |
period | 2063.876733549552 5.65 | 1.9963e-05 5.466e-08 | d yr |
n | .1744290219216993 | 1.6872e-09 | deg/d |
Q | 3.72080473044326 | 2.3994e-08 | au |
|
| | Orbit Determination Parameters
Additional Information
|
[ hide covariance matrix ]
Orbital Elements at Epoch 2456908.5 (2014-Sep-08.0) TDB
Reference: JPL 29 (heliocentric ecliptic J2000)
Element | Value | Uncertainty (1-sigma) | Units |
e | .1766124248810663 | 3.5063e-08 | |
q | 2.608367311262645 | 1.0649e-07 | au |
tp | 2456344.835247719105 (2013-Feb-21.33524772) | 9.0325e-05 | TDB |
node | 303.3166980402039 | 0.00064457 | deg |
peri | 348.9471511613222 | 0.00064475 | deg |
i | .4687617848035376 | 3.767e-06 | deg |
|
| | Orbit Determination Parameters
Additional Information
|
Orbit Covariance (6×6)
|
|
e |
q |
tp |
node |
peri |
i |
e |
1.229442832516199E-15 |
-3.693636748054882E-15 |
7.548146919011392E-13 |
1.288583570641763E-14 |
9.367778164874599E-14 |
-6.656873617831201E-17 |
q |
-3.693636748054882E-15 |
1.133974901460542E-14 |
-2.31688520326328E-12 |
-4.723305901373342E-14 |
-2.683118844875822E-13 |
2.567140246934215E-16 |
tp |
7.548146919011392E-13 |
-2.31688520326328E-12 |
8.158653196334664E-9 |
-1.295398191028376E-11 |
1.428681773193023E-9 |
-1.75433139521244E-13 |
node |
1.288583570641763E-14 |
-4.723305901373342E-14 |
-1.295398191028376E-11 |
4.154755554300373E-7 |
-4.154627572669047E-7 |
6.249375753426838E-10 |
peri |
9.367778164874599E-14 |
-2.683118844875822E-13 |
1.428681773193023E-9 |
-4.154627572669047E-7 |
4.157061019517917E-7 |
-6.249520457826676E-10 |
i |
-6.656873617831201E-17 |
2.567140246934215E-16 |
-1.75433139521244E-13 |
6.249375753426838E-10 |
-6.249520457826676E-10 |
1.419020972762478E-11 |
|
Physical Parameter Table
Parameter |
Symbol |
Value |
Units |
Sigma |
Reference |
Notes |
absolute magnitude |
H |
14.2 |
|
n/a |
MPO319665 |
|
diameter |
diameter |
7.866 |
km |
0.333 |
urn:nasa:pds:neowise_diameters_albedos::2.0[mainbelt] (http://adsabs.harvard.edu/abs/2011ApJ...741...68M) |
|
geometric albedo |
albedo |
0.060 |
|
0.007 |
urn:nasa:pds:neowise_diameters_albedos::2.0[mainbelt] (http://adsabs.harvard.edu/abs/2011ApJ...741...68M) |
|
|
48711 (1996 ND5) Discovered 1996-Jul-14 by Elst, E. W. at La Silla |
Reference: 20021120/Numbers.arc | Last Updated: 2004-04-19 |
|
[ hide close-approach data ]
Close-Approach Data ...sorted by Date/Time (TDB)
|
Date/Time (TDB) |
Time Uncertainty (days_HH:MM) |
Body |
Nominal Distance (au) |
Minimum Distance (au) |
Maximum Distance (au) |
V-relative (km/s) |
V-infinity (km/s) |
JD (TDB) |
Time Uncertainty (minutes) |
Semi-major axis (km) |
Semi-minor axis (km) |
range-LOV angle (deg) |
N-sigma |
BP |
Orbit Ref. |
Reference |
Modified |
1920-Apr-13 22:33 |
00:03 |
Jupiter |
1.76685776610497 |
1.76685591359193 |
1.76685961861491 |
1.92278483214252 |
1.6547845202292 |
2422428.439630754 |
3.08713514353274 |
81.5340215503635 |
21.7764195873909 |
81.820390771433 |
826447.170372863 |
T |
29 |
CATAB v2.0f-lin.ifort 2020-Dec-18 03:50:00 |
2020-Dec-18 03:50 |
1931-Feb-03 13:54 |
00:03 |
Jupiter |
1.52305276420509 |
1.52305192230549 |
1.52305360610511 |
1.31220050031201 |
0.780769314133478 |
2426376.079034461 |
2.49729471385118 |
407.871240408636 |
123.532282525109 |
-25.5248849077164 |
2141189.89774803 |
T |
29 |
CATAB v2.0f-lin.ifort 2020-Dec-18 03:50:00 |
2020-Dec-18 03:50 |
1941-Nov-30 06:07 |
00:02 |
Jupiter |
1.52444860891743 |
1.52444807831349 |
1.52444913952032 |
1.48318534426958 |
1.0433540969782 |
2430328.754587967 |
2.06605779716153 |
172.751363564382 |
69.1026092638759 |
-9.39284838599333 |
1548417.37857201 |
T |
29 |
CATAB v2.0f-lin.ifort 2020-Dec-18 03:50:00 |
2020-Dec-18 03:50 |
1952-Aug-31 00:47 |
00:02 |
Jupiter |
1.76657453996684 |
1.76657354286089 |
1.7665755370731 |
2.64496079068177 |
2.4570051208569 |
2434255.532886464 |
1.74114364356159 |
80.3734472019445 |
11.2219879962911 |
-78.0038136283955 |
2025845.73199706 |
T |
29 |
CATAB v2.0f-lin.ifort 2020-Dec-18 03:50:00 |
2020-Dec-18 03:50 |
2039-Apr-27 15:15 |
< 00:01 |
Jupiter |
1.83841763409145 |
1.83841705304722 |
1.83841821513548 |
2.11520445071144 |
1.8848397211283 |
2465906.135140582 |
0.888173647479627 |
64.9668004750346 |
9.12702777245063 |
88.0871977640385 |
2168495.74407845 |
T |
29 |
CATAB v2.0f-lin.ifort 2020-Dec-18 03:50:00 |
2020-Dec-18 03:50 |
2050-Feb-14 03:55 |
00:01 |
Jupiter |
1.56960927547863 |
1.56960887691098 |
1.56960967404654 |
1.38196582117744 |
0.911345904479872 |
2469851.663001498 |
1.30638013835367 |
191.547169414676 |
110.621984564763 |
-38.4740924519987 |
2603934.01137757 |
T |
29 |
CATAB v2.0f-lin.ifort 2020-Dec-18 03:50:00 |
2020-Dec-18 03:50 |
2060-Dec-13 12:11 |
00:02 |
Jupiter |
1.51629136999412 |
1.51629085087853 |
1.51629188911023 |
1.40185280684755 |
0.920848558359105 |
2473807.007613008 |
1.84490810515068 |
269.602514965523 |
85.1245004921433 |
-24.9975691651481 |
2207126.82465118 |
T |
29 |
CATAB v2.0f-lin.ifort 2020-Dec-18 03:50:00 |
2020-Dec-18 03:50 |
2071-Sep-21 04:38 |
00:02 |
Jupiter |
1.71011645749226 |
1.71011519362608 |
1.71011772135824 |
2.32892225939039 |
2.10553478834182 |
2477740.692980780 |
2.45516131196094 |
86.7923594111178 |
6.57922695340989 |
-86.8926117866894 |
1595782.14981539 |
T |
29 |
CATAB v2.0f-lin.ifort 2020-Dec-18 03:50:00 |
2020-Dec-18 03:50 |
2158-May-10 21:47 |
00:05 |
Jupiter |
1.90844098638909 |
1.90843839497576 |
1.90844357780308 |
2.32616961228647 |
2.12683002446108 |
2509383.407895059 |
4.86498592086006 |
172.122735677033 |
17.959013825244 |
-76.0370117274075 |
1402840.66503571 |
T |
29 |
CATAB v2.0f-lin.ifort 2020-Dec-18 03:50:00 |
2020-Dec-18 03:50 |
2169-Feb-26 06:57 |
00:05 |
Jupiter |
1.62445555534309 |
1.62445370394213 |
1.62445740673703 |
1.4742147869232 |
1.06323590614123 |
2513327.789586532 |
5.18531170381119 |
233.301539190925 |
113.420098288655 |
-2.04973446050825 |
741154.647785369 |
T |
29 |
CATAB v2.0f-lin.ifort 2020-Dec-18 03:50:00 |
2020-Dec-18 03:50 |
2179-Dec-27 22:34 |
00:06 |
Jupiter |
1.52203919412539 |
1.52203874351722 |
1.5220396447467 |
1.35476987026426 |
0.849936043328616 |
2517284.440554923 |
5.68176948137629 |
565.882898073947 |
113.208976566877 |
-39.2952894933903 |
2826355.81626462 |
T |
29 |
CATAB v2.0f-lin.ifort 2020-Dec-18 03:50:00 |
2020-Dec-18 03:50 |
2190-Oct-12 11:02 |
00:07 |
Jupiter |
1.66225622001496 |
1.6622534740872 |
1.66225896593705 |
2.05990619179173 |
1.79557501237671 |
2521225.959463876 |
6.63294356752342 |
165.136562986008 |
24.1749817265101 |
68.1002186840553 |
1020599.01237174 |
T |
29 |
CATAB v2.0f-lin.ifort 2020-Dec-18 03:50:00 |
2020-Dec-18 03:50 |
|
|